Time,TemperatureF,DewpointF,PressureIn,WindDirection,WindDirectionDegrees,WindSpeedMPH,WindSpeedGustMPH,Humidity,HourlyPrecipIn,Conditions,Clouds,dailyrainin,SoftwareType,DateUTC
2013-12-24 00:01:00,0.7,-2.8,29.46,NW,315,3.5,0.0,85,0.00,CLR,,0.00,WeatherDisplay:10.37,2013-12-24 06:01:00,
2013-12-24 00:06:00,0.7,-2.8,29.46,NW,315,1.2,0.0,85,0.00,CLR,,0.00,WeatherDisplay:10.37,2013-12-24 06:06:00,
2013-12-24 00:11:00,0.1,-3.5,29.45,SW,225,2.3,2.3,84,0.00,CLR,,0.00,WeatherDisplay:10.37,2013-12-24 06:11:00,
2013-12-24 00:16:00,0.0,-3.7,29.46,West,270,2.3,2.3,84,0.00,CLR,,0.00,WeatherDisplay:10.37,2013-12-24 06:16:00,
2013-12-24 00:21:00,0.0,-3.5,29.46,West,270,3.5,3.5,85,0.00,CLR,,0.00,WeatherDisplay:10.37,2013-12-24 06:21:00,
2013-12-24 00:26:00,0.1,-3.3,29.46,SW,225,2.3,2.3,85,0.00,CLR,,0.00,WeatherDisplay:10.37,2013-12-24 06:26:00,
2013-12-24 00:31:00,0.0,-3.5,29.46,NW,315,1.2,1.2,85,0.00,CLR,,0.00,WeatherDisplay:10.37,2013-12-24 06:31:00,
2013-12-24 00:36:00,0.0,-3.5,29.45,NW,315,1.2,1.2,85,0.00,CLR,,0.00,WeatherDisplay:10.37,2013-12-24 06:36:00,
2013-12-24 00:41:00,-0.2,-3.7,29.46,NE,45,1.2,0.0,85,0.00,CLR,,0.00,WeatherDisplay:10.37,2013-12-24 06:41:00,
2013-12-24 00:46:00,-0.6,-4.3,29.46,SW,225,1.2,1.2,84,0.00,CLR,,0.00,WeatherDisplay:10.37,2013-12-24 06:46:00,
2013-12-24 00:51:00,-0.8,-4.4,29.45,NE,45,1.6,0.0,84,0.00,CLR,,0.00,WeatherDisplay:10.37,2013-12-24 06:51:00,
2013-12-24 00:56:00,-0.9,-4.4,29.45,NW,315,1.2,0.0,85,0.00,CLR,,0.00,WeatherDisplay:10.37,2013-12-24 06:56:00,
2013-12-24 01:01:00,-1.1,-4.8,29.46,NW,315,1.6,0.0,84,0.00,CLR,,0.00,WeatherDisplay:10.37,2013-12-24 07:01:00,
2013-12-24 01:06:00,-1.1,-4.8,29.46,NW,315,1.2,0.0,84,0.00,CLR,,0.00,WeatherDisplay:10.37,2013-12-24 07:06:00,
2013-12-24 01:11:00,-1.1,-4.5,29.46,West,270,1.6,0.0,85,0.00,CLR,,0.00,WeatherDisplay:10.37,2013-12-24 07:11:00,
2013-12-24 01:16:00,-1.1,-4.5,29.46,West,270,2.3,0.0,85,0.00,CLR,,0.00,WeatherDisplay:10.37,2013-12-24 07:16:00,
2013-12-24 01:21:00,-1.3,-4.7,29.46,NE,45,1.2,1.2,85,0.00,CLR,,0.00,WeatherDisplay:10.37,2013-12-24 07:21:00,
2013-12-24 01:26:00,-1.3,-4.7,29.47,NW,315,2.3,0.0,85,0.00,CLR,,0.00,WeatherDisplay:10.37,2013-12-24 07:26:00,
2013-12-24 01:31:00,-1.3,-4.7,29.47,East,90,2.3,0.0,85,0.00,CLR,,0.00,WeatherDisplay:10.37,2013-12-24 07:31:00,
2013-12-24 01:36:00,-1.5,-4.9,29.47,North,0,2.3,0.0,85,0.00,CLR,,0.00,WeatherDisplay:10.37,2013-12-24 07:36:00,
2013-12-24 01:42:00,-1.7,-5.1,29.47,NW,315,1.2,1.2,85,0.00,CLR,,0.00,WeatherDisplay:10.37,2013-12-24 07:42:00,
2013-12-24 01:47:00,-1.8,-5.5,29.47,SW,225,1.2,0.0,84,0.00,CLR,,0.00,WeatherDisplay:10.37,2013-12-24 07:47:00,
2013-12-24 01:52:00,-2.0,-5.4,29.47,North,0,3.5,3.5,85,0.00,CLR,,0.00,WeatherDisplay:10.37,2013-12-24 07:52:00,
2013-12-24 01:57:00,-2.0,-5.4,29.48,NW,315,2.3,2.3,85,0.00,CLR,,0.00,WeatherDisplay:10.37,2013-12-24 07:57:00,
2013-12-24 02:02:00,-2.0,-5.4,29.48,SW,225,2.3,0.0,85,0.00,CLR,,0.00,WeatherDisplay:10.37,2013-12-24 08:02:00,
2013-12-24 02:07:00,-2.0,-5.4,29.48,SW,225,1.2,0.0,85,0.00,CLR,,0.00,WeatherDisplay:10.37,2013-12-24 08:07:00,
2013-12-24 02:12:00,-2.2,-5.6,29.48,West,270,3.5,3.5,85,0.00,CLR,,0.00,WeatherDisplay:10.37,2013-12-24 08:12:00,
2013-12-24 02:17:00,-2.4,-6.0,29.49,West,270,3.5,3.5,84,0.00,CLR,,0.00,WeatherDisplay:10.37,2013-12-24 08:17:00,
2013-12-24 02:22:00,-2.6,-6.2,29.49,West,270,5.8,5.8,84,0.00,CLR,,0.00,WeatherDisplay:10.37,2013-12-24 08:22:00,
2013-12-24 02:27:00,-2.7,-6.4,29.49,NW,315,3.8,3.8,84,0.00,CLR,,0.00,WeatherDisplay:10.37,2013-12-24 08:27:00,
2013-12-24 02:32:00,-2.7,-6.4,29.49,North,0,3.5,3.5,84,0.00,CLR,,0.00,WeatherDisplay:10.37,2013-12-24 08:32:00,
2013-12-24 02:37:00,-2.9,-6.6,29.50,West,270,5.8,5.8,84,0.00,CLR,,0.00,WeatherDisplay:10.37,2013-12-24 08:37:00,
2013-12-24 02:42:00,-2.9,-6.6,29.49,South,180,3.5,0.0,84,0.00,CLR,,0.00,WeatherDisplay:10.37,2013-12-24 08:42:00,
2013-12-24 02:47:00,-2.9,-6.6,29.49,SW,225,3.5,3.5,84,0.00,CLR,,0.00,WeatherDisplay:10.37,2013-12-24 08:47:00,
2013-12-24 02:52:00,-3.1,-6.7,29.49,SW,225,3.5,3.5,84,0.00,CLR,,0.00,WeatherDisplay:10.37,2013-12-24 08:52:00,
2013-12-24 02:57:00,-3.1,-6.7,29.49,SW,225,3.5,3.5,84,0.00,CLR,,0.00,WeatherDisplay:10.37,2013-12-24 08:57:00,
2013-12-24 03:02:00,-3.3,-6.9,29.49,SW,225,4.6,4.6,84,0.00,CLR,,0.00,WeatherDisplay:10.37,2013-12-24 09:02:00,
2013-12-24 03:07:00,-3.3,-6.9,29.50,SW,225,4.6,4.6,84,0.00,CLR,,0.00,WeatherDisplay:10.37,2013-12-24 09:07:00,
2013-12-24 03:12:00,-3.5,-7.1,29.49,SW,225,3.5,3.5,84,0.00,CLR,,0.00,WeatherDisplay:10.37,2013-12-24 09:12:00,
2013-12-24 03:17:00,-3.5,-7.1,29.49,South,180,3.5,3.5,84,0.00,CLR,,0.00,WeatherDisplay:10.37,2013-12-24 09:17:00,
2013-12-24 03:22:00,-3.6,-7.3,29.49,NW,315,3.5,3.5,84,0.00,CLR,,0.00,WeatherDisplay:10.37,2013-12-24 09:22:00,
2013-12-24 03:27:00,-3.6,-7.5,29.50,West,270,2.3,2.3,83,0.00,CLR,,0.00,WeatherDisplay:10.37,2013-12-24 09:27:00,
2013-12-24 03:32:00,-3.6,-7.5,29.49,SW,225,5.8,5.8,83,0.00,CLR,,0.00,WeatherDisplay:10.37,2013-12-24 09:32:00,
2013-12-24 03:37:00,-3.6,-7.3,29.50,NW,315,1.2,0.0,84,0.00,CLR,,0.00,WeatherDisplay:10.37,2013-12-24 09:37:00,
2013-12-24 03:42:00,-3.8,-7.7,29.50,SW,225,3.5,3.5,83,0.00,CLR,,0.00,WeatherDisplay:10.37,2013-12-24 09:42:00,
2013-12-24 03:47:00,-4.0,-7.9,29.49,SW,225,3.5,3.5,83,0.00,CLR,,0.00,WeatherDisplay:10.37,2013-12-24 09:47:00,
2013-12-24 03:52:00,-4.0,-7.9,29.50,SW,225,3.5,3.5,83,0.00,CLR,,0.00,WeatherDisplay:10.37,2013-12-24 09:52:00,
2013-12-24 03:57:00,-4.2,-8.0,29.50,NW,315,3.5,3.5,83,0.00,CLR,,0.00,WeatherDisplay:10.37,2013-12-24 09:57:00,
2013-12-24 04:02:00,-4.2,-8.0,29.49,SW,225,3.5,3.5,83,0.00,CLR,,0.00,WeatherDisplay:10.37,2013-12-24 10:02:00,
2013-12-24 04:07:00,-4.2,-8.0,29.50,SW,225,3.5,3.5,83,0.00,CLR,,0.00,WeatherDisplay:10.37,2013-12-24 10:07:00,
2013-12-24 04:12:00,-4.2,-7.8,29.50,West,270,3.5,0.0,84,0.00,CLR,,0.00,WeatherDisplay:10.37,2013-12-24 10:12:00,
2013-12-24 04:17:00,-4.4,-8.2,29.50,NW,315,3.5,0.0,83,0.00,CLR,,0.00,WeatherDisplay:10.37,2013-12-24 10:17:00,
2013-12-24 04:22:00,-4.4,-8.2,29.50,South,180,2.3,2.3,83,0.00,CLR,,0.00,WeatherDisplay:10.37,2013-12-24 10:22:00,
2013-12-24 04:27:00,-4.4,-8.2,29.50,SW,225,2.3,2.3,83,0.00,CLR,,0.00,WeatherDisplay:10.37,2013-12-24 10:27:00,
2013-12-24 04:32:00,-4.4,-8.2,29.50,SW,225,3.5,3.5,83,0.00,CLR,,0.00,WeatherDisplay:10.37,2013-12-24 10:32:00,
2013-12-24 04:37:00,-4.5,-8.4,29.50,South,180,1.2,0.0,83,0.00,CLR,,0.00,WeatherDisplay:10.37,2013-12-24 10:37:00,
2013-12-24 04:42:00,-4.7,-8.6,29.50,SW,225,2.3,2.3,83,0.00,CLR,,0.00,WeatherDisplay:10.37,2013-12-24 10:42:00,
2013-12-24 04:47:00,-4.7,-8.6,29.50,West,270,2.3,0.0,83,0.00,CLR,,0.00,WeatherDisplay:10.37,2013-12-24 10:47:00,
2013-12-24 04:52:00,-4.7,-8.6,29.50,NW,315,3.5,3.5,83,0.00,CLR,,0.00,WeatherDisplay:10.37,2013-12-24 10:52:00,
2013-12-24 04:57:00,-4.7,-8.6,29.50,SW,225,2.3,2.3,83,0.00,CLR,,0.00,WeatherDisplay:10.37,2013-12-24 10:57:00,
2013-12-24 05:02:00,-4.9,-8.7,29.50,SW,225,1.2,0.0,83,0.00,CLR,,0.00,WeatherDisplay:10.37,2013-12-24 11:02:00,
2013-12-24 05:07:00,-4.9,-8.7,29.50,SW,225,1.6,0.0,83,0.00,CLR,,0.00,WeatherDisplay:10.37,2013-12-24 11:07:00,
2013-12-24 05:12:00,-4.7,-8.6,29.50,SW,225,2.3,2.3,83,0.00,CLR,,0.00,WeatherDisplay:10.37,2013-12-24 11:12:00,
2013-12-24 05:17:00,-4.9,-8.5,29.50,West,270,3.5,3.5,84,0.00,CLR,,0.00,WeatherDisplay:10.37,2013-12-24 11:17:00,
2013-12-24 05:22:00,-4.9,-8.7,29.50,SW,225,3.5,3.5,83,0.00,CLR,,0.00,WeatherDisplay:10.37,2013-12-24 11:22:00,
2013-12-24 05:27:00,-4.7,-8.6,29.50,SW,225,2.3,2.3,83,0.00,CLR,,0.00,WeatherDisplay:10.37,2013-12-24 11:27:00,
2013-12-24 05:32:00,-4.9,-8.7,29.51,North,0,1.2,0.0,83,0.00,CLR,,0.00,WeatherDisplay:10.37,2013-12-24 11:32:00,
2013-12-24 05:37:00,-5.1,-8.9,29.50,NW,315,1.2,0.0,83,0.00,CLR,,0.00,WeatherDisplay:10.37,2013-12-24 11:37:00,
2013-12-24 05:42:00,-5.3,-9.1,29.50,West,270,1.2,0.0,83,0.00,CLR,,0.00,WeatherDisplay:10.37,2013-12-24 11:42:00,
2013-12-24 05:47:00,-5.4,-9.3,29.51,NW,315,2.3,2.3,83,0.00,CLR,,0.00,WeatherDisplay:10.37,2013-12-24 11:47:00,
2013-12-24 05:52:00,-5.6,-9.4,29.51,SW,225,1.2,0.0,83,0.00,CLR,,0.00,WeatherDisplay:10.37,2013-12-24 11:52:00,
2013-12-24 05:57:00,-5.8,-9.6,29.50,East,90,0.0,0.0,83,0.00,CLR,,0.00,WeatherDisplay:10.37,2013-12-24 11:57:00,
2013-12-24 06:02:00,-5.8,-9.6,29.50,North,0,0.0,0.0,83,0.00,CLR,,0.00,WeatherDisplay:10.37,2013-12-24 12:02:00,
2013-12-24 06:07:00,-5.8,-9.6,29.51,North,0,0.0,0.0,83,0.00,CLR,,0.00,WeatherDisplay:10.37,2013-12-24 12:07:00,
2013-12-24 06:12:00,-6.3,-10.2,29.51,West,270,1.2,0.0,83,0.00,CLR,,0.00,WeatherDisplay:10.37,2013-12-24 12:12:00,
2013-12-24 06:17:00,-6.5,-10.3,29.51,NW,315,1.2,0.0,83,0.00,CLR,,0.00,WeatherDisplay:10.37,2013-12-24 12:17:00,
2013-12-24 06:22:00,-6.7,-10.5,29.51,NW,315,1.2,0.0,83,0.00,CLR,,0.00,WeatherDisplay:10.37,2013-12-24 12:22:00,
2013-12-24 06:27:00,-6.9,-10.7,29.51,NW,315,0.0,0.0,83,0.00,CLR,,0.00,WeatherDisplay:10.37,2013-12-24 12:27:00,
2013-12-24 06:32:00,-6.9,-10.7,29.51,NW,315,1.2,0.0,83,0.00,CLR,,0.00,WeatherDisplay:10.37,2013-12-24 12:32:00,
2013-12-24 06:37:00,-6.9,-10.7,29.51,NW,315,0.0,0.0,83,0.00,CLR,,0.00,WeatherDisplay:10.37,2013-12-24 12:37:00,
2013-12-24 06:42:00,-7.1,-10.6,29.51,SW,225,1.2,0.0,84,0.00,CLR,,0.00,WeatherDisplay:10.37,2013-12-24 12:42:00,
2013-12-24 06:47:00,-7.1,-10.9,29.51,SW,225,0.0,0.0,83,0.00,CLR,,0.00,WeatherDisplay:10.37,2013-12-24 12:47:00,
2013-12-24 06:52:00,-7.4,-11.2,29.51,SW,225,1.2,0.0,83,0.00,CLR,,0.00,WeatherDisplay:10.37,2013-12-24 12:52:00,
2013-12-24 06:57:00,-7.8,-11.6,29.52,SW,225,1.2,0.0,83,0.00,CLR,,0.00,WeatherDisplay:10.37,2013-12-24 12:57:00,
2013-12-24 07:02:00,-8.1,-11.9,29.51,SW,225,1.2,0.0,83,0.00,CLR,,0.00,WeatherDisplay:10.37,2013-12-24 13:02:00,
2013-12-24 07:07:00,-8.1,-11.9,29.52,SW,225,1.2,0.0,83,0.00,CLR,,0.00,WeatherDisplay:10.37,2013-12-24 13:07:00,
2013-12-24 07:12:00,-8.7,-12.5,29.52,SW,225,1.6,1.6,83,0.00,CLR,,0.00,WeatherDisplay:10.37,2013-12-24 13:12:00,
2013-12-24 07:17:00,-8.5,-12.3,29.52,SW,225,1.2,1.2,83,0.00,CLR,,0.00,WeatherDisplay:10.37,2013-12-24 13:17:00,
2013-12-24 07:22:00,-8.3,-12.1,29.52,SW,225,1.2,1.2,83,0.00,CLR,,0.00,WeatherDisplay:10.37,2013-12-24 13:22:00,
2013-12-24 07:28:00,-8.3,-12.1,29.52,SW,225,1.2,1.2,83,0.00,CLR,,0.00,WeatherDisplay:10.37,2013-12-24 13:28:00,
2013-12-24 07:33:00,-8.5,-12.3,29.52,SW,225,1.2,0.0,83,0.00,CLR,,0.00,WeatherDisplay:10.37,2013-12-24 13:33:00,
2013-12-24 07:38:00,-8.7,-12.5,29.53,SW,225,0.0,0.0,83,0.00,CLR,,0.00,WeatherDisplay:10.37,2013-12-24 13:38:00,
2013-12-24 07:43:00,-8.5,-12.3,29.52,SW,225,1.2,1.2,83,0.00,CLR,,0.00,WeatherDisplay:10.37,2013-12-24 13:43:00,
2013-12-24 07:48:00,-7.4,-11.2,29.53,SW,225,1.2,0.0,83,0.00,CLR,,0.00,WeatherDisplay:10.37,2013-12-24 13:48:00,
2013-12-24 07:53:00,-6.2,-10.0,29.53,SW,225,1.2,1.2,83,0.00,CLR,,0.00,WeatherDisplay:10.37,2013-12-24 13:53:00,
2013-12-24 07:58:00,-5.1,-8.9,29.52,SW,225,1.2,1.2,83,0.00,CLR,,0.00,WeatherDisplay:10.37,2013-12-24 13:58:00,
2013-12-24 08:03:00,-4.4,-8.5,29.53,West,270,2.3,2.3,82,0.00,CLR,,0.00,WeatherDisplay:10.37,2013-12-24 14:03:00,
2013-12-24 08:08:00,-3.8,-8.4,29.53,SW,225,3.5,3.5,80,0.00,CLR,,0.00,WeatherDisplay:10.37,2013-12-24 14:08:00,
2013-12-24 08:13:00,-3.6,-8.3,29.53,West,270,2.3,2.3,80,0.00,CLR,,0.00,WeatherDisplay:10.37,2013-12-24 14:13:00,
2013-12-24 08:18:00,-4.2,-9.0,29.53,SW,225,1.2,1.2,79,0.00,CLR,,0.00,WeatherDisplay:10.37,2013-12-24 14:18:00,
2013-12-24 08:23:00,-5.1,-9.9,29.53,SW,225,2.3,2.3,79,0.00,CLR,,0.00,WeatherDisplay:10.37,2013-12-24 14:23:00,
2013-12-24 08:28:00,-5.6,-10.2,29.53,SW,225,2.3,2.3,80,0.00,CLR,,0.00,WeatherDisplay:10.37,2013-12-24 14:28:00,
2013-12-24 08:33:00,-5.1,-9.4,29.54,SW,225,2.3,2.3,81,0.00,CLR,,0.00,WeatherDisplay:10.37,2013-12-24 14:33:00,
2013-12-24 08:38:00,-5.1,-9.4,29.54,West,270,2.3,2.3,81,0.00,CLR,,0.00,WeatherDisplay:10.37,2013-12-24 14:38:00,
2013-12-24 08:43:00,-4.5,-8.6,29.54,West,270,1.2,0.0,82,0.00,CLR,,0.00,WeatherDisplay:10.37,2013-12-24 14:43:00,
2013-12-24 08:48:00,-4.0,-8.1,29.54,SW,225,2.3,2.3,82,0.00,CLR,,0.00,WeatherDisplay:10.37,2013-12-24 14:48:00,
2013-12-24 08:53:00,-3.5,-7.3,29.54,NNW,338,3.5,3.5,83,0.00,CLR,,0.00,WeatherDisplay:10.37,2013-12-24 14:53:00,
2013-12-24 08:58:00,-2.7,-6.6,29.54,SW,225,2.3,2.3,83,0.00,CLR,,0.00,WeatherDisplay:10.37,2013-12-24 14:58:00,
2013-12-24 09:03:00,-2.6,-6.4,29.55,SW,225,2.3,2.3,83,0.00,CLR,,0.00,WeatherDisplay:10.37,2013-12-24 15:03:00,
2013-12-24 09:08:00,-2.2,-6.3,29.55,SW,225,2.3,2.3,82,0.00,CLR,,0.00,WeatherDisplay:10.37,2013-12-24 15:08:00,
2013-12-24 09:13:00,-1.8,-6.0,29.55,SW,225,2.3,2.3,82,0.00,CLR,,0.00,WeatherDisplay:10.37,2013-12-24 15:13:00,
2013-12-24 09:18:00,-1.5,-5.6,29.55,SSW,202,3.5,3.5,82,0.00,CLR,,0.00,WeatherDisplay:10.37,2013-12-24 15:18:00,
2013-12-24 09:23:00,-1.1,-5.3,29.55,SW,225,3.5,3.5,82,0.00,CLR,,0.00,WeatherDisplay:10.37,2013-12-24 15:23:00,
2013-12-24 09:28:00,-0.6,-4.8,29.54,SW,225,2.3,2.3,82,0.00,CLR,,0.00,WeatherDisplay:10.37,2013-12-24 15:28:00,
2013-12-24 09:33:00,0.1,-4.1,29.55,SW,225,2.3,2.3,82,0.00,CLR,,0.00,WeatherDisplay:10.37,2013-12-24 15:33:00,
2013-12-24 09:38:00,0.7,-3.5,29.54,SW,225,1.2,1.2,82,0.00,CLR,,0.00,WeatherDisplay:10.37,2013-12-24 15:38:00,
2013-12-24 09:43:00,1.4,-2.8,29.55,South,180,2.3,2.3,82,0.00,CLR,,0.00,WeatherDisplay:10.37,2013-12-24 15:43:00,
2013-12-24 09:48:00,2.3,-1.9,29.54,South,180,1.2,1.2,82,0.00,CLR,,0.00,WeatherDisplay:10.37,2013-12-24 15:48:00,
2013-12-24 09:53:00,3.2,-1.1,29.55,South,180,1.2,1.2,82,0.00,CLR,,0.00,WeatherDisplay:10.37,2013-12-24 15:53:00,
2013-12-24 09:58:00,4.1,-0.4,29.54,South,180,2.3,2.3,81,0.00,CLR,,0.00,WeatherDisplay:10.37,2013-12-24 15:58:00,
2013-12-24 10:03:00,4.6,-0.2,29.55,South,180,2.3,2.3,80,0.00,CLR,,0.00,WeatherDisplay:10.37,2013-12-24 16:03:00,
2013-12-24 10:08:00,5.5,0.7,29.54,South,180,1.2,1.2,80,0.00,CLR,,0.00,WeatherDisplay:10.37,2013-12-24 16:08:00,
2013-12-24 10:13:00,7.3,1.9,29.54,South,180,2.3,2.3,78,0.00,CLR,,0.00,WeatherDisplay:10.37,2013-12-24 16:13:00,
2013-12-24 10:18:00,7.9,2.2,29.55,South,180,2.3,2.3,77,0.00,CLR,,0.00,WeatherDisplay:10.37,2013-12-24 16:18:00,
2013-12-24 10:23:00,8.4,2.4,29.54,South,180,2.3,2.3,76,0.00,CLR,,0.00,WeatherDisplay:10.37,2013-12-24 16:23:00,
2013-12-24 10:28:00,9.0,3.2,29.54,South,180,2.3,2.3,77,0.00,CLR,,0.00,WeatherDisplay:10.37,2013-12-24 16:28:00,
2013-12-24 10:33:00,9.5,3.2,29.54,SW,225,3.5,3.5,75,0.00,CLR,,0.00,WeatherDisplay:10.37,2013-12-24 16:33:00,
2013-12-24 10:38:00,9.5,2.9,29.54,SW,225,3.5,3.5,74,0.00,CLR,,0.00,WeatherDisplay:10.37,2013-12-24 16:38:00,
2013-12-24 10:43:00,10.0,3.4,29.54,SW,225,3.5,3.5,74,0.00,CLR,,0.00,WeatherDisplay:10.37,2013-12-24 16:43:00,
2013-12-24 10:48:00,10.0,3.4,29.54,South,180,3.5,3.5,74,0.00,CLR,,0.00,WeatherDisplay:10.37,2013-12-24 16:48:00,
2013-12-24 10:53:00,11.5,4.5,29.54,SW,225,3.5,3.5,73,0.00,CLR,,0.00,WeatherDisplay:10.37,2013-12-24 16:53:00,
2013-12-24 10:58:00,12.9,5.3,29.53,SW,225,3.5,3.5,71,0.00,CLR,,0.00,WeatherDisplay:10.37,2013-12-24 16:58:00,
2013-12-24 11:03:00,14.0,5.7,29.53,SW,225,3.5,3.5,69,0.00,CLR,,0.00,WeatherDisplay:10.37,2013-12-24 17:03:00,
2013-12-24 11:09:00,15.3,6.3,29.53,SW,225,3.5,3.5,67,0.00,CLR,,0.00,WeatherDisplay:10.37,2013-12-24 17:09:00,
2013-12-24 11:14:00,16.2,6.5,29.53,SE,135,3.5,3.5,65,0.00,CLR,,0.00,WeatherDisplay:10.37,2013-12-24 17:14:00,
2013-12-24 11:19:00,16.7,6.3,29.53,South,180,3.5,3.5,63,0.00,CLR,,0.00,WeatherDisplay:10.37,2013-12-24 17:19:00,
2013-12-24 11:24:00,16.5,5.8,29.53,South,180,4.6,4.6,62,0.00,CLR,,0.00,WeatherDisplay:10.37,2013-12-24 17:24:00,
2013-12-24 11:29:00,16.7,5.9,29.53,SW,225,5.8,5.8,62,0.00,CLR,,0.00,WeatherDisplay:10.37,2013-12-24 17:29:00,
2013-12-24 11:34:00,16.9,5.7,29.52,South,180,5.8,5.8,61,0.00,CLR,,0.00,WeatherDisplay:10.37,2013-12-24 17:34:00,
2013-12-24 11:39:00,16.5,5.4,29.52,SW,225,5.8,5.8,61,0.00,CLR,,0.00,WeatherDisplay:10.37,2013-12-24 17:39:00,
2013-12-24 11:44:00,16.5,5.0,29.52,SW,225,5.8,5.8,60,0.00,CLR,,0.00,WeatherDisplay:10.37,2013-12-24 17:44:00,
2013-12-24 11:49:00,16.7,4.8,29.51,South,180,6.9,6.9,59,0.00,CLR,,0.00,WeatherDisplay:10.37,2013-12-24 17:49:00,
2013-12-24 11:54:00,17.6,6.1,29.51,SW,225,3.5,3.5,60,0.00,CLR,,0.00,WeatherDisplay:10.37,2013-12-24 17:54:00,
2013-12-24 11:59:00,18.0,5.7,29.51,SW,225,5.8,5.8,58,0.00,CLR,,0.00,WeatherDisplay:10.37,2013-12-24 17:59:00,
2013-12-24 12:04:00,18.9,5.7,29.51,SW,225,4.6,4.6,56,0.00,CLR,,0.00,WeatherDisplay:10.37,2013-12-24 18:04:00,
2013-12-24 12:09:00,18.9,5.7,29.51,SW,225,5.8,5.8,56,0.00,CLR,,0.00,WeatherDisplay:10.37,2013-12-24 18:09:00,
2013-12-24 12:14:00,20.5,7.3,29.51,SW,225,3.8,3.8,56,0.00,CLR,,0.00,WeatherDisplay:10.37,2013-12-24 18:14:00,
2013-12-24 12:19:00,20.7,6.2,29.51,South,180,5.8,5.8,53,0.00,CLR,,0.00,WeatherDisplay:10.37,2013-12-24 18:19:00,
2013-12-24 12:24:00,20.7,7.0,29.50,SSW,202,3.5,3.5,55,0.00,CLR,,0.00,WeatherDisplay:10.37,2013-12-24 18:24:00,
2013-12-24 12:29:00,21.2,6.7,29.50,South,180,5.8,5.8,53,0.00,CLR,,0.00,WeatherDisplay:10.37,2013-12-24 18:29:00,
2013-12-24 12:34:00,19.9,5.9,29.50,South,180,5.8,5.8,54,0.00,CLR,,0.00,WeatherDisplay:10.37,2013-12-24 18:34:00,
2013-12-24 12:39:00,20.7,7.0,29.50,South,180,4.6,4.6,55,0.00,CLR,,0.00,WeatherDisplay:10.37,2013-12-24 18:39:00,
2013-12-24 12:44:00,19.9,5.9,29.50,SE,135,8.1,8.1,54,0.00,CLR,,0.00,WeatherDisplay:10.37,2013-12-24 18:44:00,
2013-12-24 12:49:00,20.3,7.1,29.50,South,180,6.9,6.9,56,0.00,CLR,,0.00,WeatherDisplay:10.37,2013-12-24 18:49:00,
2013-12-24 12:54:00,17.6,5.3,29.49,SE,135,3.5,3.5,58,0.00,CLR,,0.00,WeatherDisplay:10.37,2013-12-24 18:54:00,
2013-12-24 12:59:00,17.4,5.5,29.49,SE,135,5.8,5.8,59,0.00,CLR,,0.00,WeatherDisplay:10.37,2013-12-24 18:59:00,
2013-12-24 13:04:00,18.5,6.2,29.49,South,180,6.9,6.9,58,0.00,CLR,,0.00,WeatherDisplay:10.37,2013-12-24 19:04:00,
2013-12-24 13:09:00,18.1,5.8,29.48,SE,135,5.8,5.8,58,0.00,CLR,,0.00,WeatherDisplay:10.37,2013-12-24 19:09:00,
2013-12-24 13:14:00,18.5,6.2,29.48,East,90,4.6,4.6,58,0.00,CLR,,0.00,WeatherDisplay:10.37,2013-12-24 19:14:00,